Location: Unspecified
(49.2170°N, 0.0000°E)
Time: 13:55:59
(UTC+00:00)

Vanguard 1 - Pass Details

Date: 21 June 2021
Orbit: 651 x 3832 km, 34.2° (Epoch: 23 July)

Event Time Altitude Azimuth Distance (km) Brightness Sun altitude
Rises 02:57:46 0° 276° (W) 6,983 14.1 -7.5°
Reaches altitude 10° 03:04:52 10° 262° (W) 5,329 13.4 -6.7°
Maximum altitude 03:13:21 18° 226° (SW) 3,765 12.4 -5.8°
Drops below altitude 10° 03:19:31 10° 187° (S) 3,674 12.5 -5.1°
Sets 03:23:09 0° 168° (SSE) 4,204 13.0 -4.7°
